Simultaneous Nadir Overpasses (SNOs) Predictions

Prediction of SNOs between METOP-B and TERRA Satellite Orbit:

Table of predicted SNOs for the next 14.0 days since TLE Epoch: 12/23/2017
Index Date (METOP-B) Time (METOP-B) Lat,Lon (METOP-B) SZA (METOP-B ) Date (TERRA) Time (TERRA) Lat,Lon (TERRA) SZA (TERRA ) Distance(km) Time Diff (sec)
1 12/23/2017 17:11:11 -81.32, 149.87 72.59 12/23/2017 17:11:14 -81.32, 150.04 72.56 3.00 3
2 12/23/2017 18:01:51 81.32, -42.55 107.45 12/23/2017 18:00:41 81.31, -42.57 107.41 0.93 70
3 12/26/2017 11:54:54 81.31, 48.42 107.25 12/26/2017 11:56:04 81.30, 48.45 107.28 0.76 70
4 12/26/2017 12:45:33 -81.32,-143.44 72.67 12/26/2017 12:45:30 -81.32,-143.60 72.69 2.81 3
5 12/29/2017 07:29:16 81.31, 115.04 107.10 12/29/2017 07:30:19 81.31, 115.09 107.13 0.95 63
6 12/29/2017 08:19:56 -81.32, -77.16 72.86 12/29/2017 08:19:46 -81.31, -77.32 72.88 2.69 10
7 01/01/2018 03:03:37 81.31,-178.36 106.89 01/01/2018 03:04:33 81.32,-178.33 106.92 1.02 56
8 01/01/2018 03:54:18 -81.32, -10.91 73.11 01/01/2018 03:54:00 -81.32, -10.72 73.09 3.24 18
9 01/03/2018 22:38:00 81.31,-112.17 106.57 01/03/2018 22:38:49 81.31,-112.20 106.58 0.79 49




NCC Satellite Simultaneous Nadir Overpasses (SNOs) Prediction Service
